Weather Roundup
Issued by NWS

Home | Current Version | Previous Version | Text Only | Print | Product List | Glossary On
Versions: 1 2 3 4 5 6 7 8 9 10 11 12 13 14 15 16 17 18 19 20 21 22 23 24 25 26 27 28 29 30 31 32 33 34 35 36 37 38 39 40 41 42 43 44 45 46 47 48 49 50
000
NZUS93 KARX 020910
HRRWXR

CURRENT HOURLY OBSERVATIONS ACROSS
MUCH OF THE UPPER MISSISSIPPI VALLEY
NATIONAL WEATHER SERVICE LA CROSSE WI
400 AM CDT MON MAY 02 2016


...SOUTHEAST MINNESOTA...


CITY           SKY/WX    TMP DP  RH WIND       PRES   REMARKS
ROCHESTER      PTCLDY    44  41  89 SW3       30.11S
ROCHESTER/MAYO FAIR      45  41  86 SE5       30.11S
WINONA         PTCLDY    41  41 100 CALM      30.12F FOG
AUSTIN         PTCLDY    39  37  93 CALM      30.10F FOG
ALBERT LEA     CLEAR     45  39  81 W2        30.10F
DODGE CENTER   PTCLDY    37  36  93 CALM      30.11R
PRESTON        CLOUDY    42  38  85 CALM      30.12S
OWATONNA       CLEAR     37  36  93 CALM      30.11S FOG
FARIBAULT      CLEAR     37  36  93 CALM      30.11F
$$

...ELSEWHERE IN MINNESOTA...


CITY           SKY/WX    TMP DP  RH WIND       PRES   REMARKS
MINNEAPOLIS    CLEAR     43  37  79 CALM      30.12S
INTNL FALLS    CLOUDY    29  26  89 CALM      30.10R
DULUTH         CLEAR     33  28  81 CALM      30.12S
RED WING       PTCLDY    37  34  87 CALM      30.11S
REDWOOD FALLS  CLEAR     42  32  67 W5        30.13F
MANKATO        CLEAR     43  34  70 N3        30.11F
WORTHINGTON    CLEAR     38  35  89 W5        30.13F WCI  34
FAIRMONT       CLEAR     41  34  75 NW6       30.11S
$$

...SOUTHWEST WISCONSIN...


CITY           SKY/WX    TMP DP  RH WIND       PRES   REMARKS
LA CROSSE      PTCLDY    40  36  86 E5        30.12S
PRAIRIE DU CHI FOG       42  41  97 CALM      30.12S VSB 1/4
BOSCOBEL       FOG       38  37  97 CALM      30.12R VSB 1/4
LONE ROCK      MOCLDY    37  36  96 W7        30.11R WCI  32
PLATTEVILLE    CLOUDY    44  42  93 NE6       30.09S
FORT MC COY    MOCLDY    31  30  96 CALM      30.13S
CAMP DOUGLAS   CLEAR     32  32 100 NW6       30.11S WCI  26
MAUSTON-NEW LI SUNNY     35  34  96 CALM      30.11R
VIROQUA        FAIR      40  36  86 CALM      30.11S
WIS DELLS      CLEAR     34  33  96 CALM      30.10R
$$

...ELSEWHERE IN WISCONSIN...


CITY           SKY/WX    TMP DP  RH WIND       PRES   REMARKS
MILWAUKEE      MOCLDY    43  38  82 N7        30.06F
MADISON        MOCLDY    44  39  82 N3        30.08S
GREEN BAY      CLEAR     39  33  79 N6        30.10S WCI  35
EAU CLAIRE     MOCLDY    40  36  86 CALM      30.11S
BLACK RVR FLS  FAIR      30  30 100 CALM      30.12S
MEDFORD        CLEAR     35  33  94 CALM      30.12R
WAUSAU         CLEAR     39  34  82 N3        30.11R
WIS RAPIDS     PTCLDY    35  31  85 CALM      30.12S
MARSHFIELD     CLEAR     37  31  78 NW6       30.10F WCI  32
RICE LAKE      CLEAR     37  34  89 CALM      30.13S
$$

...NORTHEAST IOWA...


CITY           SKY/WX    TMP DP  RH WIND       PRES   REMARKS
WATERLOO       CLEAR     41  40  96 NW6       30.09
DUBUQUE        CLOUDY    45  42  89 N6        30.09S
DECORAH        CLOUDY    41  41 100 CALM      30.11R FOG
MASON CITY     CLOUDY    43  40  89 W5        30.11F
CHARLES CITY   MOCLDY    41  41 100 N7        30.11F
OELWEIN        CLEAR     41  41 100 N7        30.10F
$$

...ELSEWHERE IN IOWA...


CITY           SKY/WX    TMP DP  RH WIND       PRES   REMARKS
DES MOINES     PTCLDY    45  41  86 N5        30.11S
IOWA CITY      MOCLDY    43  42  97 CALM      30.10R
FORT DODGE     CLOUDY    37  34  87 CALM      30.12S VSB 1/2
MARSHALLTOWN   FOG       38  38 100 W5        30.10S VSB 1   WCI  34
CEDAR RAPIDS   CLEAR     42  42 100 N5        30.08R
$$

...NORTHERN ILLINOIS...


CITY           SKY/WX    TMP DP  RH WIND       PRES   REMARKS
CHICAGO-OHARE  CLOUDY    45  40  82 NE12      30.02R
CHICAGO-MIDWAY CLOUDY    44  39  82 N12G22    30.01S
MOLINE         CLOUDY    49  45  86 N6        30.06S
ROCKFORD       CLOUDY    47  43  86 N3        30.09R
PEORIA         CLOUDY    48  45  89 NW5       30.03F
$$

NOTE: "FAIR" INDICATES FEW OR NO CLOUDS BELOW 12,000 FEET WITH NO
SIGNIFICANT WEATHER AND/OR OBSTRUCTIONS TO VISIBILITY. WIND
SPEEDS ARE IN MILES-PER-HOUR.




USA.gov is the U.S. government's official web portal to all federal, state and local government web resources and services.